Location: ????????
(55.1591°N, 39.1782°E)
Time: 16:23:17
(UTC+00:00)

Cosmos 2026 Rocket - Pass Details

Date: 14 April 2024
Orbit: 938 x 1001 km, 82.9° (Epoch: 24 May)

Event Time Altitude Azimuth Distance (km) Brightness Sun altitude
Exits shadow 00:49:26 - 190° (S) 3,062 6.2 -12.4°
Reaches altitude 10° 00:50:18 10° 191° (S) 2,737 5.9 -12.3°
Maximum altitude 00:56:37 86° 281° (W) 1,004 4.1 -11.6°
Drops below altitude 10° 01:03:03 10° 11° (N) 2,784 7.1 -10.9°
Sets 01:05:36 0° 12° (NNE) 3,739 7.8 -10.6°
